Location: Wells
(51.2093°N, 2.6446°W)
Time: 05:56:25
(UTC+01:00)

STARS - Pass Details

Date: 18 March 2026
Orbit: 575 x 588 km, 98.2° (Epoch: 17 April)

Event Time Altitude Azimuth Distance (km) Brightness Sun altitude
Rises 04:06:56 0° 359° (N) 2,803 ? -20.7°
Reaches altitude 10° 04:10:21 10° 328° (NNW) 1,897 ? -20.2°
Enters shadow 04:10:57 11° 320° (NW) 1,817 ? -20.2°
